Regional Weather Roundup
Issued by NWS San Angelo, TX

Home | Current Version | Previous Version | Text Only | Print | Product List | Glossary On
Versions: 1 2 3 4 5 6 7 8 9 10 11 12 13 14 15 16 17 18 19 20 21 22 23 24 25 26 27 28 29 30 31 32 33 34 35 36 37 38 39 40 41 42 43 44 45 46 47 48 49 50
000
ASUS44 KSJT 032315
RWRSJT
WEST CENTRAL TEXAS REGIONAL WEATHER ROUNDUP
NATIONAL WEATHER SERVICE SAN ANGELO TX
600 PM CDT WED JUN 03 2020

NOTE: "FAIR" INDICATES FEW OR NO CLOUDS BELOW 12,000 FEET WITH NO
SIGNIFICANT WEATHER AND/OR OBSTRUCTIONS TO VISIBILITY.

TXZ049-054-064>066-071>073-076>078-098-099-113-114-127-128-139-140-
154-155-168>170-040000
...LOCATIONS ACROSS WEST CENTRAL TEXAS...

CITY           SKY/WX    TMP DP  RH WIND       PRES   REMARKS
SAN ANGELO     MOSUNNY   94  62  34 VRB7      29.88F
ABILENE        PTSUNNY   92  65  40 SE12      29.89F
DYESS AFB      SUNNY     92  60  33 S9        29.88F
JUNCTION       SUNNY     89  67  47 S8        29.91F
SWEETWATER     SUNNY     93  56  28 SE13      29.93
BROWNWOOD      MOSUNNY   90  66  45 S9        29.89F
COLEMAN        PTCLDY    88  63  42 SE8       29.90F
SONORA         SUNNY     90  61  37 CALM      29.96F
OZONA          NOT AVBL
BRADY          MOSUNNY   88  64  45 SE8       29.91F
$$

TEXAS PANHANDLE/OKLAHOMA PANHANDLE

CITY           SKY/WX    TMP DP  RH WIND       PRES   REMARKS
AMARILLO       SUNNY     92  50  23 SW5       29.92F
BORGER         MOSUNNY  101  46  15 N5        29.88F
CANADIAN       SUNNY     98  52  20 SW3       29.82F
DALHART        LGT RAIN  87  57  35 SE13      29.93F
DUMAS          CLEAR     96  45  17 SW14      29.92F
GUYMON         NOT AVBL
HEREFORD       CLEAR     97  42  15 W9        29.95F
PAMPA          PTCLDY    94  46  18 SW8       29.91F
PERRYTON       MOSUNNY   96  48  19 E5        29.86
$$

SOUTHERN PANHANDLE/SOUTH PLAINS/ROLLING PLAINS

CITY           SKY/WX    TMP DP  RH WIND       PRES   REMARKS
LUBBOCK        MOSUNNY   93  50  23 SE10      29.93F
SNYDER         MOSUNNY   92  58  32 CALM      29.91
CHILDRESS      SUNNY     92  60  34 S13       29.85F
SEMINOLE       CLEAR     94  53  25 E6        29.99F
$$

PERMIAN BASIN

CITY           SKY/WX    TMP DP  RH WIND       PRES   REMARKS
MIDLAND        MOSUNNY   92  54  27 SW3       29.93F
ODESSA         SUNNY     93  53  25 MISG      29.94F
WINK           MOSUNNY   96  53  23 E8        29.89F
$$

FAR WEST/SOUTHWEST MOUNTAINS/TRANS PECOS

CITY           SKY/WX    TMP DP  RH WIND       PRES   REMARKS
ALPINE         CLEAR     92  47  21 NE7       30.06F
DRYDEN           N/A     92  62  36 E10G17    29.92F
EL PASO        MOSUNNY  101  41  12 CALM      29.92F
FORT STOCKTON  SUNNY     92  56  29 E10       29.93F
GUADALUPE PASS PTSUNNY   85  47  26 E7        30.09F
MARFA          CLOUDY    90  48  23 NE9       30.04F
PECOS          CLEAR     96  52  22 NE7       29.89F
$$

DALLAS/FORT WORTH METROPLEX

CITY           SKY/WX    TMP DP  RH WIND       PRES   REMARKS
DFW AIRPORT    MOSUNNY   92  65  40 S8        29.84F
FTW MEACHAM    MOSUNNY   90  67  46 SE10      29.85F
DAL-EXECUTIVE  SUNNY     91  62  37 S6        29.86F
GRAND PRAIRIE  SUNNY     91  59  33 S6        29.89S
ADDISON        MOSUNNY   93  61  33 S15       29.87F
MESQUITE       PTCLDY    91  61  35 S6        29.87F
LANCASTER      CLEAR     91  66  44 S7        29.88F
$$

NORTH CENTRAL TEXAS

CITY           SKY/WX    TMP DP  RH WIND       PRES   REMARKS
SHRMAN/DENISON CLEAR     91  64  40 S9        29.87F
GAINESVILLE    MOSUNNY   89  64  44 SW8       29.88F
BRIDGEPORT     PTCLDY    89  66  46 S5        29.88
DENTON         SUNNY     92  63  38 SE14      29.86F
WAXAHACHIE     CLEAR     91  64  39 S6        29.89F
GRANBURY       PTCLDY    93  64  37 SE7       29.87F
$$

WESTERN NORTH TEXAS

CITY           SKY/WX    TMP DP  RH WIND       PRES   REMARKS
WICHITA FALLS  SUNNY     92  67  43 S14       29.83F
VERNON         CLEAR     96  63  33 S14       29.83
BRECKENRIDGE   CLEAR     92  64  39 S5        29.87F
COMANCHE       MOSUNNY   90  68  48 S8        29.90F
$$

CENTRAL AND SOUTH CENTRAL TEXAS

CITY           SKY/WX    TMP DP  RH WIND       PRES   REMARKS
AUSTIN/BERGSTM MOSUNNY   91  70  49 SE9       29.87F
WACO           SUNNY     91  65  41 S8        29.87F
HILLSBORO      CLEAR     90  68  47 SW6       29.88S
TEMPLE         SUNNY     90  66  45 SE7       29.89F
KILLEEN-GRAY   PTSUNNY   88  65  46 SE10      29.87F
FORT HOOD      MOSUNNY   88  67  48 SE8       29.88F
GEORGETOWN     SUNNY     90  68  48 S9        29.91F
LAGO VISTA     FAIR      85  69  56 S6        29.93S
SAN MARCOS     SUNNY     90  71  53 VRB5      29.89F
NEW BRAUNFELS  PTSUNNY   90  71  53 SE7       29.87F
RANDOLPH AFB   SUNNY     88  69  53 S9        29.88F
SAN ANTONIO    MOSUNNY   88  71  57 E10       29.89F
STINSON        MOSUNNY   87  71  58 S8        29.86F
PLEASANTON     NOT AVBL
LA GRANGE      MOSUNNY   83  74  75 E8        29.89S
GIDDINGS       PTCLDY    82  74  77 S10G16    29.92F
$$

EAST TEXAS

CITY           SKY/WX    TMP DP  RH WIND       PRES   REMARKS
PARIS          SUNNY     89  68  49 SW10      29.87F
CLARKSVILLE    NOT AVBL
TYLER          MOSUNNY   90  64  42 SW8       29.88F
LONGVIEW       MOSUNNY   90  66  45 SW7       29.87F
PALESTINE      CLEAR     89  70  53 S3        29.90S
NACOGDOCHES    MOSUNNY   92  69  47 S7        29.89F
$$

TEXAS HILL COUNTRY AND EDWARDS PLATEAU

CITY           SKY/WX    TMP DP  RH WIND       PRES   REMARKS
LLANO          PTCLDY    90  66  45 CALM      29.92F
HORSESHOE BAY  NOT AVBL
KERRVILLE      MOSUNNY   89  69  51 CALM      29.93S
FREDERICKSBRG  SUNNY     86  62  44 S6        29.93F
ROCKSPRINGS    CLEAR     86  63  45 S7G14     29.99F
HONDO          SUNNY     89  69  51 S6        29.88F
UVALDE           N/A     89  68  48 SE7       29.89F
DEL RIO        MOSUNNY   95  68  41 S14       29.84F
$$

SOUTHEAST TEXAS

CITY           SKY/WX    TMP DP  RH WIND       PRES   REMARKS
COLLEGE STN    PTSUNNY   81  73  76 S14       29.90R
CALDWELL       MOCLDY    79  74  85 S14G21    29.92R
CROCKETT       NOT AVBL
BRENHAM        RAIN      75  74  95 S5        29.92F
HUNTSVILLE     CLOUDY    78  71  79 S6        29.91F
CONROE         MOSUNNY   76  71  85 E3        29.92S
HOUSTON BUSH   PTSUNNY   79  75  87 SW5       29.90F
HOUSTON HOBBY  PTSUNNY   82  75  79 CALM      29.90F
PERLAND        MOSUNNY   82  75  79 CALM      29.92F
WHARTON        PTCLDY    83  70  64 SE7       29.90F
$$

THE UPPER TEXAS COAST

CITY           SKY/WX    TMP DP  RH WIND       PRES   REMARKS
ORANGE         PTCLDY    84  75  74 S9        29.92F
PORT ARTHUR    MOSUNNY   83  77  82 S8        29.90F
GALVESTON      CLOUDY    84  75  74 SE8       29.91F
ANGLETON       PTSUNNY   85  74  69 SE7       29.91S
BAY CITY       PTCLDY    88  75  63 SE3       29.90F
$$

TEXAS COASTAL BEND, RIO GRANDE PLAINS DEEP SOUTH TEXAS

CITY           SKY/WX    TMP DP  RH WIND       PRES   REMARKS
VICTORIA       MOSUNNY   88  72  58 SE10      29.89F
BEEVILLE       MOCLDY    88  79  74 E12       29.88S
ROCKPORT       SUNNY     84  74  71 SE12      29.88F
PORT ARANSAS   CLEAR     84  76  75 SE9       29.90S
PORT LAVACA    NOT AVBL
CORPUS CHRISTI MOSUNNY   85  75  72 SE12      29.87F
KINGSVILLE NAS MOSUNNY   87  74  64 SE12      29.87
COTULLA        PTSUNNY   90  73  57 E8        29.85F
LAREDO         MOSUNNY   92  71  50 S10       29.84F
BROWNSVILLE    MOSUNNY   88  72  58 E9        29.86F
PORT ISABEL    MOSUNNY   85  73  67 E10       29.87F
HEBBRONVILLE   NOT AVBL
MCALLEN        SUNNY     89  72  56 E14       29.86F
WESLACO        NOT AVBL
FALFURRIAS     NOT AVBL
EDINBURG       PTCLDY    87  71  58 SE12      29.87S
$$




USA.gov is the U.S. government's official web portal to all federal, state and local government web resources and services.